Valparaiso, IN

11:05 AM CST on January 23, 2018 (GMT -0600)
Porter County Municipal

Weather History for KVPZ - December, 2012

Change the Weather History Date:

Thursday, December 6, 2012

  Actual Average Record
Temperature  
Mean Temperature 36 °F 31 °F  
Max Temperature 43 °F 38 °F 63 °F (1998)
Min Temperature 28 °F 24 °F 5 °F (2007)
Degree Days  
Heating Degree Days 29 34  
Month to date heating degree days 108 197  
Since 1 July heating degree days 1412 1455  
Cooling Degree Days 0 0  
Month to date cooling degree days 0 0  
Year to date cooling degree days 1054 713  
Moisture  
Dew Point 31 °F    
Average Humidity 79    
Maximum Humidity 82    
Minimum Humidity 70    
Precipitation  
Precipitation 0.00 in 0.08 in 1.50 in (1998)
Month to date precipitation 0.64 0.52  
Year to date precipitation 24.83 35.85  
Sea Level Pressure  
Sea Level Pressure 30.09 in    
Wind  
Wind Speed 7 mph (SSE)    
Max Wind Speed 14 mph    
Max Gust Speed 20 mph    
Visibility 10 miles    
Events      
T = Trace of Precipitation, MM = Missing Value Source: NWS Daily Summary

Daily Weather History Graph

Daily Weather History Graph

Search for Another Location

Airport or City:

Trip Planner

Search our weather history database for the weather conditions in past years. The results will help you decide how hot, cold, wet, or windy it might be!

Date:

Astronomy

Dec. 06, 2012 Rise Set
Actual Time 7:00 AM CST 4:18 PM CST
Civil Twilight 6:29 AM CST 4:49 PM CST
Nautical Twilight 5:54 AM CST 5:23 PM CST
Astronomical Twilight 5:21 AM CST 5:57 PM CST
Moon No Moon Rise 11:48 AM CST (12/6)
Length of Visible Light 10h 20m
Length of Day
9h 17m
Waning Gibbous, 49% of the Moon is Illuminated
Dec 6
Waning Gibbous
Dec 13
New
Dec 19
First Quarter
Dec 28
Full
Jan 4
Last Quarter

Hourly Weather History & Observations

Time (CST) Temp. Windchill Dew Point Humidity Pressure Visibility Wind Dir Wind Speed Gust Speed Precip Events Conditions
12:53 AM 30.9 °F 24.3 °F 25.0 °F 79% 30.25 in 10.0 mi SE 6.9 mph - N/A   Clear
1:53 AM 30.0 °F 25.2 °F 25.0 °F 82% 30.26 in 10.0 mi SE 4.6 mph - N/A   Clear
2:53 AM 28.9 °F 22.8 °F 24.1 °F 82% 30.25 in 10.0 mi ESE 5.8 mph - N/A   Clear
3:53 AM 30.0 °F 23.2 °F 25.0 °F 82% 30.22 in 10.0 mi ESE 6.9 mph - N/A   Clear
4:53 AM 30.0 °F 23.2 °F 25.0 °F 82% 30.22 in 10.0 mi SE 6.9 mph - N/A   Clear
5:53 AM 30.0 °F 23.2 °F 25.0 °F 82% 30.22 in 10.0 mi SE 6.9 mph - N/A   Clear
6:53 AM 30.0 °F 23.2 °F 25.0 °F 82% 30.19 in 10.0 mi SE 6.9 mph - N/A   Clear
7:53 AM 30.9 °F 22.8 °F 26.1 °F 82% 30.18 in 10.0 mi SE 9.2 mph - N/A   Clear
8:53 AM 32.0 °F 23.6 °F 27.0 °F 82% 30.17 in 10.0 mi SE 10.4 mph - N/A   Clear
9:53 AM 33.1 °F 23.9 °F 28.0 °F 82% 30.14 in 10.0 mi SSE 12.7 mph 19.6 mph N/A   Clear
10:53 AM 36.0 °F 29.0 °F 30.0 °F 79% 30.12 in 10.0 mi South 9.2 mph - N/A   Clear
11:53 AM 39.0 °F 33.4 °F 32.0 °F 76% 30.08 in 10.0 mi South 8.1 mph - N/A   Clear
12:53 PM 42.1 °F 36.1 °F 33.1 °F 70% 30.04 in 10.0 mi South 10.4 mph - N/A   Clear
1:53 PM 42.1 °F 36.6 °F 34.0 °F 73% 30.01 in 10.0 mi SSE 9.2 mph - N/A   Clear
2:53 PM 43.0 °F 38.2 °F 34.0 °F 71% 30.01 in 10.0 mi SSE 8.1 mph - N/A   Clear
3:53 PM 42.1 °F 37.7 °F 35.1 °F 76% 30.00 in 10.0 mi SSE 6.9 mph - N/A   Clear
4:53 PM 41.0 °F 39.0 °F 35.1 °F 79% 30.00 in 10.0 mi South 3.5 mph - N/A   Clear
5:53 PM 42.1 °F 38.4 °F 35.1 °F 76% 29.99 in 10.0 mi SSE 5.8 mph - N/A   Mostly Cloudy
6:53 PM 42.1 °F 40.2 °F 36.0 °F 79% 29.98 in 10.0 mi SSE 3.5 mph - N/A   Overcast
7:53 PM 42.1 °F 37.7 °F 36.0 °F 79% 29.98 in 10.0 mi SSE 6.9 mph - N/A   Overcast
8:53 PM 42.1 °F 36.6 °F 37.0 °F 82% 29.96 in 10.0 mi South 9.2 mph - N/A   Overcast
9:53 PM 42.1 °F - 37.0 °F 82% 29.96 in 10.0 mi Calm Calm - N/A   Overcast
10:53 PM 43.0 °F 38.2 °F 37.0 °F 80% 29.95 in 10.0 mi South 8.1 mph - N/A   Overcast
11:53 PM 43.0 °F 40.3 °F 37.0 °F 80% 29.96 in 10.0 mi SSW 4.6 mph - N/A   Overcast